When you browse on this site, cookies collect data to enhance your experience and personalize the content and advertising you see.
Visit our Privacy Policy to learn more. By continuing to use the site, you agree to this use of cookies and data.
  • In Czech Republic
  • List of Countries
  • For 7 days
  • Water Temperature
  • Weather Map
  • Weather Widgets
  • user-avatar
    Login

    Hourly Weather Velez

    Today, 14 November, Thursday

    Time Temperature Precipitation Wind Pressure Humidity
    00:00 +11°C° 0.2 mm 0 mps 575 mmHg 96%
    01:00 +11°C° 0 mm 0 mps 575 mmHg 95%
    02:00 +11°C° 0.2 mm 0 mps 575 mmHg 95%
    03:00 +11°C° 0.2 mm 0 mps 574 mmHg 95%
    04:00 +11°C° 0.2 mm 0 mps 574 mmHg 95%
    05:00 +11°C° 0.1 mm 0 mps 575 mmHg 94%
    06:00 +11°C° 0.1 mm 0 mps 575 mmHg 93%
    07:00 +12°C° 0.1 mm 0 mps 576 mmHg 92%
    08:00 +14°C° 0 mm 0 mps 577 mmHg 83%
    09:00 +18°C° 0 mm 1 mps 578 mmHg 74%
    10:00 +20°C° 0 mm 1 mps 580 mmHg 65%
    11:00 +19°C° 0.6 mm 1 mps 578 mmHg 71%
    12:00 +19°C° 0.6 mm 1 mps 577 mmHg 77%
    13:00 +18°C° 0.6 mm 1 mps 576 mmHg 83%
    14:00 +18°C° 0.7 mm 1 mps 576 mmHg 85%
    15:00 +18°C° 0.7 mm 1 mps 575 mmHg 87%
    16:00 +16°C° 0.7 mm 1 mps 575 mmHg 89%
    17:00 +15°C° 0.6 mm 1 mps 575 mmHg 92%
    18:00 +13°C° 0.6 mm 0 mps 575 mmHg 95%
    19:00 +12°C° 0.6 mm 0 mps 574 mmHg 98%
    20:00 +12°C° 0.1 mm 0 mps 575 mmHg 98%
    21:00 +11°C° 0.1 mm 0 mps 575 mmHg 98%
    22:00 +11°C° 0.1 mm 0 mps 576 mmHg 97%
    23:00 +11°C° 0 mm 0 mps 575 mmHg 97%

    Tomorrow, 15 November, Friday

    Time Temperature Precipitation Wind Pressure Humidity
    00:00 +11°C° 0 mm 0 mps 575 mmHg 97%
    01:00 +11°C° 0 mm 1 mps 574 mmHg 97%
    02:00 +11°C° 0 mm 1 mps 574 mmHg 97%
    03:00 +11°C° 0 mm 1 mps 574 mmHg 96%
    04:00 +10°C° 0 mm 0 mps 574 mmHg 96%
    05:00 +10°C° 0.4 mm 0 mps 574 mmHg 96%
    06:00 +10°C° 0.4 mm 0 mps 575 mmHg 96%
    07:00 +11°C° 0.4 mm 0 mps 575 mmHg 96%
    08:00 +11°C° 0.9 mm 0 mps 576 mmHg 94%
    09:00 +12°C° 0.9 mm 0 mps 576 mmHg 92%
    10:00 +13°C° 0.9 mm 0 mps 577 mmHg 91%
    11:00 +16°C° 0.3 mm 1 mps 577 mmHg 85%
    12:00 +18°C° 0.3 mm 1 mps 577 mmHg 79%
    13:00 +19°C° 0.3 mm 1 mps 576 mmHg 72%
    14:00 +19°C° 1.2 mm 1 mps 576 mmHg 79%
    15:00 +18°C° 1.2 mm 1 mps 575 mmHg 86%
    16:00 +16°C° 1.2 mm 1 mps 574 mmHg 93%
    17:00 +15°C° 0.7 mm 1 mps 574 mmHg 95%
    18:00 +12°C° 0.7 mm 0 mps 574 mmHg 96%
    19:00 +11°C° 0.7 mm 0 mps 574 mmHg 98%
    20:00 +11°C° 0.2 mm 0 mps 574 mmHg 98%
    21:00 +11°C° 0.2 mm 0 mps 575 mmHg 97%
    22:00 +11°C° 0.2 mm 0 mps 575 mmHg 97%
    23:00 +10°C° 0.1 mm 0 mps 574 mmHg 97%

    Day after tomorrow, 16 November, Saturday

    Time Temperature Precipitation Wind Pressure Humidity
    00:00 +10°C° 0.1 mm 0 mps 574 mmHg 97%
    01:00 +10°C° 0.1 mm 0 mps 573 mmHg 97%
    02:00 +10°C° 0.1 mm 0 mps 573 mmHg 97%
    03:00 +10°C° 0.1 mm 0 mps 573 mmHg 97%
    04:00 +10°C° 0.1 mm 0 mps 573 mmHg 97%
    05:00 +10°C° 0 mm 0 mps 573 mmHg 97%
    06:00 +11°C° 0 mm 0 mps 574 mmHg 96%
    07:00 +11°C° 0 mm 0 mps 575 mmHg 95%
    08:00 +14°C° 0.1 mm 0 mps 576 mmHg 85%
    09:00 +18°C° 0.1 mm 1 mps 577 mmHg 75%
    10:00 +20°C° 0.1 mm 1 mps 578 mmHg 64%
    11:00 +20°C° 0.2 mm 1 mps 577 mmHg 63%
    12:00 +20°C° 0.2 mm 2 mps 577 mmHg 62%
    13:00 +20°C° 0.2 mm 2 mps 576 mmHg 60%
    14:00 +19°C° 0.2 mm 2 mps 575 mmHg 67%
    15:00 +19°C° 0.2 mm 1 mps 575 mmHg 73%
    16:00 +18°C° 0.2 mm 1 mps 574 mmHg 79%
    17:00 +15°C° 0.3 mm 1 mps 573 mmHg 85%
    18:00 +14°C° 0.3 mm 1 mps 573 mmHg 92%
    19:00 +11°C° 0.3 mm 0 mps 573 mmHg 98%
    20:00 +11°C° 0.1 mm 0 mps 573 mmHg 97%
    21:00 +11°C° 0.1 mm 1 mps 573 mmHg 97%
    22:00 +11°C° 0.1 mm 1 mps 574 mmHg 96%
    23:00 +11°C° 0.1 mm 1 mps 573 mmHg 96%

    17 November, Sunday

    Time Temperature Precipitation Wind Pressure Humidity
    00:00 +10°C° 0.1 mm 1 mps 573 mmHg 95%
    01:00 +10°C° 0.1 mm 1 mps 572 mmHg 95%
    02:00 +10°C° 0 mm 1 mps 572 mmHg 94%
    03:00 +10°C° 0 mm 1 mps 572 mmHg 93%
    04:00 +10°C° 0 mm 1 mps 572 mmHg 92%
    05:00 +11°C° 0 mm 1 mps 573 mmHg 91%
    06:00 +11°C° 0 mm 1 mps 573 mmHg 89%
    07:00 +12°C° 0 mm 1 mps 574 mmHg 88%
    08:00 +14°C° 0 mm 1 mps 575 mmHg 79%
    09:00 +16°C° 0 mm 1 mps 576 mmHg 70%
    10:00 +20°C° 0 mm 1 mps 577 mmHg 61%
    11:00 +20°C° 0.3 mm 1 mps 576 mmHg 65%
    12:00 +20°C° 0.3 mm 1 mps 576 mmHg 69%
    13:00 +20°C° 0.3 mm 1 mps 575 mmHg 73%
    14:00 +19°C° 0.7 mm 1 mps 574 mmHg 80%
    15:00 +18°C° 0.7 mm 1 mps 573 mmHg 87%
    16:00 +16°C° 0.7 mm 1 mps 573 mmHg 93%
    17:00 +13°C° 0.5 mm 0 mps 573 mmHg 95%
    18:00 +12°C° 0.5 mm 0 mps 573 mmHg 96%
    19:00 +11°C° 0.5 mm 0 mps 573 mmHg 98%
    20:00 +11°C° 0.1 mm 0 mps 573 mmHg 98%
    21:00 +10°C° 0.1 mm 0 mps 573 mmHg 98%
    22:00 +10°C° 0.1 mm 0 mps 574 mmHg 98%
    23:00 +10°C° 0.1 mm 0 mps 573 mmHg 97%

    18 November, Monday

    Time Temperature Precipitation Wind Pressure Humidity
    00:00 +10°C° 0.1 mm 0 mps 573 mmHg 97%
    01:00 +11°C° 0.1 mm 1 mps 573 mmHg 97%
    02:00 +9°C° 0.1 mm 0 mps 573 mmHg 97%
    03:00 +9°C° 0.1 mm 0 mps 573 mmHg 97%
    04:00 +9°C° 0.1 mm 0 mps 573 mmHg 97%
    05:00 +10°C° 0 mm 0 mps 573 mmHg 97%
    06:00 +10°C° 0 mm 0 mps 574 mmHg 96%
    07:00 +11°C° 0 mm 0 mps 575 mmHg 95%
    08:00 +13°C° 0.1 mm 0 mps 575 mmHg 88%
    09:00 +16°C° 0.1 mm 1 mps 576 mmHg 81%
    10:00 +18°C° 0.1 mm 1 mps 577 mmHg 73%
    11:00 +19°C° 0.5 mm 1 mps 577 mmHg 74%
    12:00 +19°C° 0.5 mm 1 mps 576 mmHg 75%
    13:00 +19°C° 0.5 mm 1 mps 576 mmHg 76%
    14:00 +18°C° 0.4 mm 1 mps 575 mmHg 80%
    15:00 +18°C° 0.4 mm 1 mps 574 mmHg 84%
    16:00 +16°C° 0.4 mm 1 mps 573 mmHg 89%
    17:00 +15°C° 0.2 mm 1 mps 573 mmHg 92%
    18:00 +13°C° 0.2 mm 0 mps 573 mmHg 95%
    19:00 +11°C° 0.2 mm 0 mps 573 mmHg 98%
    20:00 +11°C° 0.1 mm 0 mps 574 mmHg 98%
    21:00 +11°C° 0.1 mm 0 mps 574 mmHg 97%
    22:00 +11°C° 0.1 mm 0 mps 574 mmHg 97%
    23:00 +10°C° 0 mm 0 mps 574 mmHg 97%

    19 November, Tuesday

    Time Temperature Precipitation Wind Pressure Humidity
    00:00 +10°C° 0 mm 0 mps 574 mmHg 96%
    01:00 +10°C° 0 mm 0 mps 573 mmHg 96%
    02:00 +10°C° 0 mm 0 mps 573 mmHg 96%
    03:00 +10°C° 0 mm 0 mps 573 mmHg 95%
    04:00 +9°C° 0 mm 0 mps 573 mmHg 95%
    05:00 +10°C° 0 mm 0 mps 574 mmHg 94%
    06:00 +11°C° 0 mm 0 mps 574 mmHg 93%
    07:00 +11°C° 0 mm 0 mps 575 mmHg 92%
    08:00 +13°C° 0 mm 0 mps 576 mmHg 82%
    09:00 +18°C° 0 mm 1 mps 577 mmHg 73%
    10:00 +20°C° 0 mm 1 mps 578 mmHg 64%
    11:00 +20°C° 0.4 mm 1 mps 577 mmHg 68%
    12:00 +19°C° 0.4 mm 1 mps 577 mmHg 73%
    13:00 +19°C° 0.4 mm 1 mps 576 mmHg 77%
    14:00 +18°C° 0.8 mm 1 mps 575 mmHg 82%
    15:00 +16°C° 0.8 mm 1 mps 574 mmHg 87%
    16:00 +16°C° 0.8 mm 1 mps 574 mmHg 92%
    17:00 +13°C° 0.4 mm 0 mps 574 mmHg 94%
    18:00 +12°C° 0.4 mm 0 mps 574 mmHg 96%
    19:00 +11°C° 0.4 mm 0 mps 574 mmHg 98%
    20:00 +11°C° 0.1 mm 0 mps 574 mmHg 98%
    21:00 +10°C° 0.1 mm 0 mps 574 mmHg 97%
    22:00 +10°C° 0.1 mm 0 mps 574 mmHg 97%
    23:00 +11°C° 0 mm 1 mps 574 mmHg 97%
    Show more